Location: Unspecified
(40.7945°N, 0.0000°E)
Time: 07:10:57
(UTC+00:00)

Tiros 1 despin weight - Pass Details

Date: 28 January 2021
Orbit: 593 x 642 km, 48.2° (Epoch: 05 March)

Event Time Altitude Azimuth Distance (km) Brightness Sun altitude
Rises 18:00:04 0° 299° (WNW) 2,865 ? -9.3°
Reaches altitude 10° 18:02:23 10° 300° (WNW) 1,951 ? -9.7°
Maximum altitude 18:06:51 87° 25° (NNE) 604 ? -10.5°
Drops below altitude 10° 18:11:17 10° 119° (ESE) 1,922 ? -11.3°
Enters shadow 18:11:48 - 119° (ESE) 2,125 ? -11.4°
